AMC-2 (GE-2)

Last updated on Dec. 16, 2020, 6:20 a.m. UTC

1 24713U 97002A   20350.64065345  .00000026  00000-0  00000-0 0  9996
2 24713   6.7144  59.3561 0000661  14.9113 131.8085  0.99465793 87432
UTC
Height (km)
Latitude
Longitude
Inclination
Orbital Period
UTC large
Height (km)
Speed (km/s)
/
Latitude / Longitude
Inclination (degrees)
Orbital Period (minutes)
Azimuth
Elevation
Range (km)
Doppler Factor
iOS Compass Heading
iOS Angle

Next 30 passes for location: Hong Kong

Rise time Rise Azimuth (degrees) Set time Set Azimuth (degrees) Duration Max altitude (degrees)

No matching passes for this satellites